owner,sensor,date,latitude,longitude,vertical_datum,wind_speed,wind_to_direction,wind_speed_of_gust,qcFlag 
COMPS,ioos:station:USF.COMPS:C10:1,2016-06-01T00:05:00Z,27.1690,-82.9260,3.0,4.6,335.21,5.68,'1111122,1111122,1111122' 
COMPS,ioos:station:USF.COMPS:C10:1,2016-06-01T00:35:00Z,27.1690,-82.9260,3.0,4.02,338.11,4.95,'1111122,1111122,1111122' 
COMPS,ioos:station:USF.COMPS:C10:1,2016-06-01T01:05:00Z,27.1690,-82.9260,3.0,3.86,335.04,4.7,'1111122,1111122,1111122' 
COMPS,ioos:station:USF.COMPS:C10:1,2016-06-01T01:35:00Z,27.1690,-82.9260,3.0,3.25,348.51,4.31,'1111122,1111122,1111122' 
COMPS,ioos:station:USF.COMPS:C10:1,2016-06-01T05:05:00Z,27.1690,-82.9260,3.0,1.4,88.25,2.36,'1111122,1111122,1111122' 
COMPS,ioos:station:USF.COMPS:C10:1,2016-06-01T05:35:00Z,27.1690,-82.9260,3.0,1.45,33.46,2.39,'1111122,1111122,1111122' 
COMPS,ioos:station:USF.COMPS:C10:1,2016-06-01T07:05:00Z,27.1690,-82.9260,3.0,1.67,46.25,2.37,'1111122,1111122,1111122' 
COMPS,ioos:station:USF.COMPS:C10:1,2016-06-01T07:35:00Z,27.1690,-82.9260,3.0,1.43,52.13,2.06,'1111122,1111122,1111122' 
COMPS,ioos:station:USF.COMPS:C10:1,2016-06-01T08:05:00Z,27.1690,-82.9260,3.0,1.96,62.46,2.7,'1111122,1111122,1111122' 
COMPS,ioos:station:USF.COMPS:C10:1,2016-06-01T08:35:00Z,27.1690,-82.9260,3.0,2.9,102.75,3.72,'1111122,1111122,1111122' 
COMPS,ioos:station:USF.COMPS:C10:1,2016-06-01T09:05:00Z,27.1690,-82.9260,3.0,2.17,120.17,3.11,'1111122,1111122,1111122' 
COMPS,ioos:station:USF.COMPS:C10:1,2016-06-01T09:35:00Z,27.1690,-82.9260,3.0,1.58,130.04,2.41,'1111122,1111122,1111122' 
COMPS,ioos:station:USF.COMPS:C10:1,2016-06-01T11:05:00Z,27.1690,-82.9260,3.0,1.21,122.36,1.83,'1111122,1111122,1111122' 
COMPS,ioos:station:USF.COMPS:C10:1,2016-06-01T11:35:00Z,27.1690,-82.9260,3.0,1.78,117.54,2.61,'1111122,1111122,1111122' 
COMPS,ioos:station:USF.COMPS:C10:1,2016-06-01T13:05:00Z,27.1690,-82.9260,3.0,1.73,82.56,2.36,'1111122,1111122,1111122' 
COMPS,ioos:station:USF.COMPS:C10:1,2016-06-01T13:35:00Z,27.1690,-82.9260,3.0,2.63,100.67,3.27,'1111122,1111122,1111122' 
COMPS,ioos:station:USF.COMPS:C10:1,2016-06-01T14:05:00Z,27.1690,-82.9260,3.0,2.76,90.72,3.61,'1111122,1111122,1111122' 
COMPS,ioos:station:USF.COMPS:C10:1,2016-06-01T14:35:00Z,27.1690,-82.9260,3.0,2.04,83.12,2.69,'1111122,1111122,1111122' 
COMPS,ioos:station:USF.COMPS:C10:1,2016-06-01T15:05:00Z,27.1690,-82.9260,3.0,2.0,83.77,2.65,'1111122,1111122,1111122' 
COMPS,ioos:station:USF.COMPS:C10:1,2016-06-01T15:35:00Z,27.1690,-82.9260,3.0,2.16,72.71,2.99,'1111122,1111122,1111122' 
COMPS,ioos:station:USF.COMPS:C10:1,2016-06-01T16:05:00Z,27.1690,-82.9260,3.0,2.1,83.14,2.79,'1111122,1111122,1111122' 
COMPS,ioos:station:USF.COMPS:C10:1,2016-06-01T16:35:00Z,27.1690,-82.9260,3.0,1.52,80.14,2.08,'1111122,1111122,1111122' 
COMPS,ioos:station:USF.COMPS:C10:1,2016-06-01T17:05:00Z,27.1690,-82.9260,3.0,1.58,97.48,2.41,'1111122,1111122,1111122' 
COMPS,ioos:station:USF.COMPS:C10:1,2016-06-01T17:35:00Z,27.1690,-82.9260,3.0,1.24,111.29,2.12,'1111122,1111122,1111122' 
COMPS,ioos:station:USF.COMPS:C10:1,2016-06-01T18:05:00Z,27.1690,-82.9260,3.0,0.98,129.15,1.73,'1111122,1111122,1111122' 
COMPS,ioos:station:USF.COMPS:C10:1,2016-06-01T18:35:00Z,27.1690,-82.9260,3.0,1.03,240.2,1.84,'1111122,1111122,1111122' 
COMPS,ioos:station:USF.COMPS:C10:1,2016-06-01T19:05:00Z,27.1690,-82.9260,3.0,1.93,243.39,2.61,'1111122,1111122,1111122' 
COMPS,ioos:station:USF.COMPS:C10:1,2016-06-01T19:35:00Z,27.1690,-82.9260,3.0,2.51,260.09,3.71,'1111122,1111122,1111122' 
COMPS,ioos:station:USF.COMPS:C10:1,2016-06-01T20:05:00Z,27.1690,-82.9260,3.0,3.08,262.76,3.89,'1111122,1111122,1111122' 
COMPS,ioos:station:USF.COMPS:C10:1,2016-06-01T20:35:00Z,27.1690,-82.9260,3.0,3.48,276.85,4.59,'1111122,1111122,1111122' 
COMPS,ioos:station:USF.COMPS:C10:1,2016-06-01T21:05:00Z,27.1690,-82.9260,3.0,4.05,283.15,4.89,'1111122,1111122,1111122' 
COMPS,ioos:station:USF.COMPS:C10:1,2016-06-01T21:35:00Z,27.1690,-82.9260,3.0,4.39,293.59,5.52,'1111122,1111122,1111122' 
COMPS,ioos:station:USF.COMPS:C10:1,2016-06-01T22:05:00Z,27.1690,-82.9260,3.0,4.71,297.0,5.5,'1111122,1111122,1111122' 
COMPS,ioos:station:USF.COMPS:C10:1,2016-06-01T22:35:00Z,27.1690,-82.9260,3.0,4.64,312.92,5.98,'1111122,1111122,1111122' 
COMPS,ioos:station:USF.COMPS:C10:1,2016-06-01T23:05:00Z,27.1690,-82.9260,3.0,4.95,327.42,5.76,'1111122,1111122,1111122' 
COMPS,ioos:station:USF.COMPS:C10:1,2016-06-01T23:35:00Z,27.1690,-82.9260,3.0,4.06,333.7,4.98,'1111122,1111122,1111122' 
COMPS,ioos:station:USF.COMPS:C10:1,2016-06-02T00:05:00Z,27.1690,-82.9260,3.0,3.4,330.68,4.21,'1111122,1111122,1111122' 
COMPS,ioos:station:USF.COMPS:C10:1,2016-06-02T00:35:00Z,27.1690,-82.9260,3.0,3.42,340.04,4.48,'1111122,1111122,1111122' 
COMPS,ioos:station:USF.COMPS:C10:1,2016-06-02T01:05:00Z,27.1690,-82.9260,3.0,3.29,356.93,4.04,'1111122,1111122,1111122' 
COMPS,ioos:station:USF.COMPS:C10:1,2016-06-02T01:35:00Z,27.1690,-82.9260,3.0,3.26,21.28,4.09,'1111122,1111122,1111122' 
COMPS,ioos:station:USF.COMPS:C10:1,2016-06-02T02:05:00Z,27.1690,-82.9260,3.0,3.31,6.24,4.25,'1111122,1111122,1111122' 
COMPS,ioos:station:USF.COMPS:C10:1,2016-06-02T02:35:00Z,27.1690,-82.9260,3.0,3.73,2.27,4.63,'1111122,1111122,1111122' 
COMPS,ioos:station:USF.COMPS:C10:1,2016-06-02T05:05:00Z,27.1690,-82.9260,3.0,1.25,82.12,2.13,'1111122,1111122,1111122' 
COMPS,ioos:station:USF.COMPS:C10:1,2016-06-02T05:35:00Z,27.1690,-82.9260,3.0,4.62,158.47,5.52,'1111122,1111122,1111122' 
COMPS,ioos:station:USF.COMPS:C10:1,2016-06-02T06:05:00Z,27.1690,-82.9260,3.0,4.32,169.25,5.44,'1111122,1111122,1111122' 
COMPS,ioos:station:USF.COMPS:C10:1,2016-06-02T06:35:00Z,27.1690,-82.9260,3.0,4.05,170.82,4.9,'1111122,1111122,1111122' 
COMPS,ioos:station:USF.COMPS:C10:1,2016-06-02T07:05:00Z,27.1690,-82.9260,3.0,4.25,162.02,5.1,'1111122,1111122,1111122' 
COMPS,ioos:station:USF.COMPS:C10:1,2016-06-02T07:35:00Z,27.1690,-82.9260,3.0,4.02,170.11,5.81,'1111122,1111122,1111122' 
COMPS,ioos:station:USF.COMPS:C10:1,2016-06-02T08:05:00Z,27.1690,-82.9260,3.0,2.67,177.85,3.5,'1111122,1111122,1111122' 
COMPS,ioos:station:USF.COMPS:C10:1,2016-06-02T08:35:00Z,27.1690,-82.9260,3.0,2.65,179.62,3.3,'1111122,1111122,1111122' 
COMPS,ioos:station:USF.COMPS:C10:1,2016-06-02T09:05:00Z,27.1690,-82.9260,3.0,2.62,175.62,3.5,'1111122,1111122,1111122' 
COMPS,ioos:station:USF.COMPS:C10:1,2016-06-02T09:35:00Z,27.1690,-82.9260,3.0,2.5,185.03,3.52,'1111122,1111122,1111122' 
COMPS,ioos:station:USF.COMPS:C10:1,2016-06-02T10:05:00Z,27.1690,-82.9260,3.0,2.88,161.92,3.68,'1111122,1111122,1111122' 
COMPS,ioos:station:USF.COMPS:C10:1,2016-06-02T10:35:00Z,27.1690,-82.9260,3.0,3.22,155.69,4.02,'1111122,1111122,1111122' 
COMPS,ioos:station:USF.COMPS:C10:1,2016-06-02T11:05:00Z,27.1690,-82.9260,3.0,3.54,157.39,4.62,'1111122,1111122,1111122' 
COMPS,ioos:station:USF.COMPS:C10:1,2016-06-02T11:35:00Z,27.1690,-82.9260,3.0,3.15,157.09,4.34,'1111122,1111122,1111122' 
COMPS,ioos:station:USF.COMPS:C10:1,2016-06-02T12:05:00Z,27.1690,-82.9260,3.0,3.13,144.1,4.05,'1111122,1111122,1111122' 
COMPS,ioos:station:USF.COMPS:C10:1,2016-06-02T12:35:00Z,27.1690,-82.9260,3.0,4.13,120.78,5.2,'1111122,1111122,1111122' 
COMPS,ioos:station:USF.COMPS:C10:1,2016-06-02T13:05:00Z,27.1690,-82.9260,3.0,4.15,112.67,4.9,'1111122,1111122,1111122' 
COMPS,ioos:station:USF.COMPS:C10:1,2016-06-02T13:35:00Z,27.1690,-82.9260,3.0,4.43,123.58,5.21,'1111122,1111122,1111122' 
COMPS,ioos:station:USF.COMPS:C10:1,2016-06-02T14:05:00Z,27.1690,-82.9260,3.0,4.43,130.18,5.51,'1111122,1111122,1111122' 
COMPS,ioos:station:USF.COMPS:C10:1,2016-06-02T14:35:00Z,27.1690,-82.9260,3.0,4.89,132.58,5.8,'1111122,1111122,1111122' 
COMPS,ioos:station:USF.COMPS:C10:1,2016-06-02T15:05:00Z,27.1690,-82.9260,3.0,5.27,137.13,6.3,'1111122,1111122,1111122' 
COMPS,ioos:station:USF.COMPS:C10:1,2016-06-02T15:35:00Z,27.1690,-82.9260,3.0,4.85,137.69,5.67,'1111122,1111122,1111122' 
COMPS,ioos:station:USF.COMPS:C10:1,2016-06-02T17:05:00Z,27.1690,-82.9260,3.0,3.26,160.88,3.92,'1111122,1111122,1111122' 
COMPS,ioos:station:USF.COMPS:C10:1,2016-06-02T17:35:00Z,27.1690,-82.9260,3.0,3.25,161.66,4.1,'1111122,1111122,1111122' 
COMPS,ioos:station:USF.COMPS:C10:1,2016-06-02T18:05:00Z,27.1690,-82.9260,3.0,3.18,168.55,3.96,'1111122,1111122,1111122' 
COMPS,ioos:station:USF.COMPS:C10:1,2016-06-02T18:35:00Z,27.1690,-82.9260,3.0,2.58,184.54,3.38,'1111122,1111122,1111122' 
COMPS,ioos:station:USF.COMPS:C10:1,2016-06-02T20:05:00Z,27.1690,-82.9260,3.0,2.61,221.5,3.34,'1111122,1111122,1111122' 
COMPS,ioos:station:USF.COMPS:C10:1,2016-06-02T20:35:00Z,27.1690,-82.9260,3.0,2.56,247.43,3.11,'1111122,1111122,1111122' 
COMPS,ioos:station:USF.COMPS:C10:1,2016-06-02T21:05:00Z,27.1690,-82.9260,3.0,2.14,245.57,2.72,'1111122,1111122,1111122' 
COMPS,ioos:station:USF.COMPS:C10:1,2016-06-02T21:35:00Z,27.1690,-82.9260,3.0,2.26,240.66,2.72,'1111122,1111122,1111122' 
COMPS,ioos:station:USF.COMPS:C10:1,2016-06-02T22:05:00Z,27.1690,-82.9260,3.0,2.12,252.76,2.84,'1111122,1111122,1111122' 
COMPS,ioos:station:USF.COMPS:C10:1,2016-06-02T22:35:00Z,27.1690,-82.9260,3.0,1.79,250.38,2.43,'1111122,1111122,1111122' 
COMPS,ioos:station:USF.COMPS:C10:1,2016-06-02T23:05:00Z,27.1690,-82.9260,3.0,1.9,228.69,2.31,'1111122,1111122,1111122' 
COMPS,ioos:station:USF.COMPS:C10:1,2016-06-02T23:35:00Z,27.1690,-82.9260,3.0,1.85,231.45,2.66,'1111122,1111122,1111122' 
COMPS,ioos:station:USF.COMPS:C10:1,2016-06-03T00:05:00Z,27.1690,-82.9260,3.0,1.63,256.69,2.26,'1111122,1111122,1111122' 
COMPS,ioos:station:USF.COMPS:C10:1,2016-06-03T00:35:00Z,27.1690,-82.9260,3.0,0.39,302.58,1.08,'1111122,1111122,1111122' 
COMPS,ioos:station:USF.COMPS:C10:1,2016-06-03T01:05:00Z,27.1690,-82.9260,3.0,0.43,325.51,0.89,'1111122,1111122,1111122' 
COMPS,ioos:station:USF.COMPS:C10:1,2016-06-03T01:35:00Z,27.1690,-82.9260,3.0,0.74,5.18,1.35,'1111122,1111122,1111122' 
COMPS,ioos:station:USF.COMPS:C10:1,2016-06-03T02:05:00Z,27.1690,-82.9260,3.0,0.66,349.5,1.01,'1111122,1111122,1111122' 
COMPS,ioos:station:USF.COMPS:C10:1,2016-06-03T02:35:00Z,27.1690,-82.9260,3.0,1.63,80.68,2.86,'1111122,1111122,1111122' 
COMPS,ioos:station:USF.COMPS:C10:1,2016-06-03T03:05:00Z,27.1690,-82.9260,3.0,1.06,129.29,1.84,'1111122,1111122,1111122' 
COMPS,ioos:station:USF.COMPS:C10:1,2016-06-03T03:35:00Z,27.1690,-82.9260,3.0,0.8,129.33,1.16,'1111122,1111122,1111122' 
COMPS,ioos:station:USF.COMPS:C10:1,2016-06-03T04:05:00Z,27.1690,-82.9260,3.0,0.69,136.8,1.02,'1111122,1111122,1111122' 
COMPS,ioos:station:USF.COMPS:C10:1,2016-06-03T04:35:00Z,27.1690,-82.9260,3.0,0.86,138.17,1.24,'1111122,1111122,1111122' 
COMPS,ioos:station:USF.COMPS:C10:1,2016-06-03T05:05:00Z,27.1690,-82.9260,3.0,0.66,127.44,1.08,'1111122,1111122,1111122' 
COMPS,ioos:station:USF.COMPS:C10:1,2016-06-03T05:35:00Z,27.1690,-82.9260,3.0,0.48,265.71,0.93,'1111122,1111122,1111122' 
COMPS,ioos:station:USF.COMPS:C10:1,2016-06-03T06:05:00Z,27.1690,-82.9260,3.0,0.45,248.41,0.92,'1111122,1111122,1111122' 
COMPS,ioos:station:USF.COMPS:C10:1,2016-06-03T06:35:00Z,27.1690,-82.9260,3.0,0.29,3.75,0.54,'1111122,1111122,1111122' 
COMPS,ioos:station:USF.COMPS:C10:1,2016-06-03T09:05:00Z,27.1690,-82.9260,3.0,1.87,129.82,2.97,'1111122,1111122,1111122' 
COMPS,ioos:station:USF.COMPS:C10:1,2016-06-03T09:35:00Z,27.1690,-82.9260,3.0,2.19,142.14,2.87,'1111122,1111122,1111122' 
COMPS,ioos:station:USF.COMPS:C10:1,2016-06-03T10:05:00Z,27.1690,-82.9260,3.0,2.35,156.35,3.01,'1111122,1111122,1111122' 
COMPS,ioos:station:USF.COMPS:C10:1,2016-06-03T10:35:00Z,27.1690,-82.9260,3.0,1.9,127.47,2.82,'1111122,1111122,1111122' 
COMPS,ioos:station:USF.COMPS:C10:1,2016-06-03T11:05:00Z,27.1690,-82.9260,3.0,2.88,119.85,3.56,'1111122,1111122,1111122' 
COMPS,ioos:station:USF.COMPS:C10:1,2016-06-03T11:35:00Z,27.1690,-82.9260,3.0,3.0,105.4,3.71,'1111122,1111122,1111122' 
COMPS,ioos:station:USF.COMPS:C10:1,2016-06-03T12:05:00Z,27.1690,-82.9260,3.0,2.78,115.76,3.85,'1111122,1111122,1111122' 
COMPS,ioos:station:USF.COMPS:C10:1,2016-06-03T12:35:00Z,27.1690,-82.9260,3.0,4.12,109.39,5.11,'1111122,1111122,1111122' 
COMPS,ioos:station:USF.COMPS:C10:1,2016-06-03T13:05:00Z,27.1690,-82.9260,3.0,4.11,118.37,5.08,'1111122,1111122,1111122' 
COMPS,ioos:station:USF.COMPS:C10:1,2016-06-03T13:35:00Z,27.1690,-82.9260,3.0,4.0,111.65,5.21,'1111122,1111122,1111122' 
COMPS,ioos:station:USF.COMPS:C10:1,2016-06-03T14:05:00Z,27.1690,-82.9260,3.0,4.02,113.42,4.95,'1111122,1111122,1111122' 
COMPS,ioos:station:USF.COMPS:C10:1,2016-06-03T14:35:00Z,27.1690,-82.9260,3.0,4.03,117.22,4.99,'1111122,1111122,1111122' 
COMPS,ioos:station:USF.COMPS:C10:1,2016-06-03T15:05:00Z,27.1690,-82.9260,3.0,4.14,128.72,5.23,'1111122,1111122,1111122' 
COMPS,ioos:station:USF.COMPS:C10:1,2016-06-03T15:35:00Z,27.1690,-82.9260,3.0,4.31,148.21,5.36,'1111122,1111122,1111122' 
COMPS,ioos:station:USF.COMPS:C10:1,2016-06-03T16:05:00Z,27.1690,-82.9260,3.0,4.9,153.67,5.99,'1111122,1111122,1111122' 
COMPS,ioos:station:USF.COMPS:C10:1,2016-06-03T16:35:00Z,27.1690,-82.9260,3.0,4.45,156.32,5.3,'1111122,1111122,1111122' 
COMPS,ioos:station:USF.COMPS:C10:1,2016-06-03T17:05:00Z,27.1690,-82.9260,3.0,4.66,165.48,5.51,'1111122,1111122,1111122' 
COMPS,ioos:station:USF.COMPS:C10:1,2016-06-03T17:35:00Z,27.1690,-82.9260,3.0,3.92,163.38,4.79,'1111122,1111122,1111122' 
COMPS,ioos:station:USF.COMPS:C10:1,2016-06-03T18:05:00Z,27.1690,-82.9260,3.0,3.5,175.74,4.21,'1111122,1111122,1111122' 
COMPS,ioos:station:USF.COMPS:C10:1,2016-06-03T18:35:00Z,27.1690,-82.9260,3.0,3.28,184.46,4.09,'1111122,1111122,1111122' 
COMPS,ioos:station:USF.COMPS:C10:1,2016-06-03T21:05:00Z,27.1690,-82.9260,3.0,2.94,233.15,3.82,'1111122,1111122,1111122' 
COMPS,ioos:station:USF.COMPS:C10:1,2016-06-03T21:35:00Z,27.1690,-82.9260,3.0,2.13,243.02,3.03,'1111122,1111122,1111122' 
COMPS,ioos:station:USF.COMPS:C10:1,2016-06-03T22:05:00Z,27.1690,-82.9260,3.0,2.44,252.99,3.12,'1111122,1111122,1111122' 
COMPS,ioos:station:USF.COMPS:C10:1,2016-06-03T22:35:00Z,27.1690,-82.9260,3.0,2.4,275.96,3.13,'1111122,1111122,1111122' 
COMPS,ioos:station:USF.COMPS:C10:1,2016-06-03T23:05:00Z,27.1690,-82.9260,3.0,2.35,260.66,3.11,'1111122,1111122,1111122' 
COMPS,ioos:station:USF.COMPS:C10:1,2016-06-03T23:35:00Z,27.1690,-82.9260,3.0,1.32,301.63,1.97,'1111122,1111122,1111122' 
COMPS,ioos:station:USF.COMPS:C10:1,2016-06-04T00:05:00Z,27.1690,-82.9260,3.0,1.05,13.56,1.46,'1111122,1111122,1111122' 
COMPS,ioos:station:USF.COMPS:C10:1,2016-06-04T00:35:00Z,27.1690,-82.9260,3.0,0.65,22.21,1.15,'1111122,1111122,1111122' 
COMPS,ioos:station:USF.COMPS:C10:1,2016-06-04T01:05:00Z,27.1690,-82.9260,3.0,2.35,80.41,3.21,'1111122,1111122,1111122' 
COMPS,ioos:station:USF.COMPS:C10:1,2016-06-04T01:35:00Z,27.1690,-82.9260,3.0,2.64,76.82,3.18,'1111122,1111122,1111122' 
COMPS,ioos:station:USF.COMPS:C10:1,2016-06-04T02:05:00Z,27.1690,-82.9260,3.0,1.8,84.47,2.81,'1111122,1111122,1111122' 
COMPS,ioos:station:USF.COMPS:C10:1,2016-06-04T02:35:00Z,27.1690,-82.9260,3.0,5.02,115.06,8.23,'1111122,1111122,1111122' 
COMPS,ioos:station:USF.COMPS:C10:1,2016-06-04T03:05:00Z,27.1690,-82.9260,3.0,5.25,99.54,7.35,'1111122,1111122,1111122' 
COMPS,ioos:station:USF.COMPS:C10:1,2016-06-04T03:35:00Z,27.1690,-82.9260,3.0,5.78,102.66,6.99,'1111122,1111122,1111122' 
COMPS,ioos:station:USF.COMPS:C10:1,2016-06-04T04:05:00Z,27.1690,-82.9260,3.0,5.71,104.73,7.27,'1111122,1111122,1111122' 
COMPS,ioos:station:USF.COMPS:C10:1,2016-06-04T04:35:00Z,27.1690,-82.9260,3.0,5.2,133.16,6.36,'1111122,1111122,1111122' 
COMPS,ioos:station:USF.COMPS:C10:1,2016-06-04T05:05:00Z,27.1690,-82.9260,3.0,4.7,149.65,6.23,'1111122,1111122,1111122' 
COMPS,ioos:station:USF.COMPS:C10:1,2016-06-04T05:35:00Z,27.1690,-82.9260,3.0,4.13,139.27,4.97,'1111122,1111122,1111122' 
COMPS,ioos:station:USF.COMPS:C10:1,2016-06-04T06:05:00Z,27.1690,-82.9260,3.0,4.64,135.72,5.65,'1111122,1111122,1111122' 
COMPS,ioos:station:USF.COMPS:C10:1,2016-06-04T06:35:00Z,27.1690,-82.9260,3.0,5.48,146.77,6.48,'1111122,1111122,1111122' 
COMPS,ioos:station:USF.COMPS:C10:1,2016-06-04T07:05:00Z,27.1690,-82.9260,3.0,5.12,144.5,6.35,'1111122,1111122,1111122' 
COMPS,ioos:station:USF.COMPS:C10:1,2016-06-04T07:35:00Z,27.1690,-82.9260,3.0,5.0,155.52,6.28,'1111122,1111122,1111122' 
COMPS,ioos:station:USF.COMPS:C10:1,2016-06-04T08:05:00Z,27.1690,-82.9260,3.0,4.16,136.43,5.35,'1111122,1111122,1111122' 
COMPS,ioos:station:USF.COMPS:C10:1,2016-06-04T08:35:00Z,27.1690,-82.9260,3.0,3.85,143.98,4.78,'1111122,1111122,1111122' 
COMPS,ioos:station:USF.COMPS:C10:1,2016-06-04T09:05:00Z,27.1690,-82.9260,3.0,3.7,145.7,4.46,'1111122,1111122,1111122' 
COMPS,ioos:station:USF.COMPS:C10:1,2016-06-04T09:35:00Z,27.1690,-82.9260,3.0,3.75,152.41,4.84,'1111122,1111122,1111122' 
COMPS,ioos:station:USF.COMPS:C10:1,2016-06-04T10:05:00Z,27.1690,-82.9260,3.0,4.08,124.32,5.07,'1111122,1111122,1111122' 
COMPS,ioos:station:USF.COMPS:C10:1,2016-06-04T10:35:00Z,27.1690,-82.9260,3.0,4.16,124.76,4.93,'1111122,1111122,1111122' 
COMPS,ioos:station:USF.COMPS:C10:1,2016-06-04T11:05:00Z,27.1690,-82.9260,3.0,4.31,124.65,5.27,'1111122,1111122,1111122' 
COMPS,ioos:station:USF.COMPS:C10:1,2016-06-04T11:35:00Z,27.1690,-82.9260,3.0,4.58,119.61,5.62,'1111122,1111122,1111122' 
COMPS,ioos:station:USF.COMPS:C10:1,2016-06-04T12:05:00Z,27.1690,-82.9260,3.0,4.86,112.87,5.71,'1111122,1111122,1111122' 
COMPS,ioos:station:USF.COMPS:C10:1,2016-06-04T12:35:00Z,27.1690,-82.9260,3.0,4.5,110.43,5.44,'1111122,1111122,1111122' 
COMPS,ioos:station:USF.COMPS:C10:1,2016-06-04T13:05:00Z,27.1690,-82.9260,3.0,4.62,111.9,5.61,'1111122,1111122,1111122' 
COMPS,ioos:station:USF.COMPS:C10:1,2016-06-04T13:35:00Z,27.1690,-82.9260,3.0,4.44,112.75,5.36,'1111122,1111122,1111122' 
COMPS,ioos:station:USF.COMPS:C10:1,2016-06-04T14:05:00Z,27.1690,-82.9260,3.0,4.76,117.25,5.72,'1111122,1111122,1111122' 
COMPS,ioos:station:USF.COMPS:C10:1,2016-06-04T14:35:00Z,27.1690,-82.9260,3.0,4.75,112.88,6.12,'1111122,1111122,1111122' 
COMPS,ioos:station:USF.COMPS:C10:1,2016-06-04T15:05:00Z,27.1690,-82.9260,3.0,4.13,107.77,5.02,'1111122,1111122,1111122' 
COMPS,ioos:station:USF.COMPS:C10:1,2016-06-04T15:35:00Z,27.1690,-82.9260,3.0,4.32,113.57,5.26,'1111122,1111122,1111122' 
COMPS,ioos:station:USF.COMPS:C10:1,2016-06-04T16:05:00Z,27.1690,-82.9260,3.0,4.39,118.33,5.32,'1111122,1111122,1111122' 
COMPS,ioos:station:USF.COMPS:C10:1,2016-06-04T16:35:00Z,27.1690,-82.9260,3.0,4.21,117.33,4.97,'1111122,1111122,1111122' 
COMPS,ioos:station:USF.COMPS:C10:1,2016-06-04T17:05:00Z,27.1690,-82.9260,3.0,3.61,118.55,4.14,'1111122,1111122,1111122' 
COMPS,ioos:station:USF.COMPS:C10:1,2016-06-04T17:35:00Z,27.1690,-82.9260,3.0,2.77,123.2,3.58,'1111122,1111122,1111122' 
COMPS,ioos:station:USF.COMPS:C10:1,2016-06-04T18:05:00Z,27.1690,-82.9260,3.0,1.78,144.0,2.54,'1111122,1111122,1111122' 
COMPS,ioos:station:USF.COMPS:C10:1,2016-06-04T18:35:00Z,27.1690,-82.9260,3.0,2.15,180.06,2.78,'1111122,1111122,1111122' 
COMPS,ioos:station:USF.COMPS:C10:1,2016-06-04T19:05:00Z,27.1690,-82.9260,3.0,3.01,204.65,3.8,'1111122,1111122,1111122' 
COMPS,ioos:station:USF.COMPS:C10:1,2016-06-04T19:35:00Z,27.1690,-82.9260,3.0,3.08,210.48,3.73,'1111122,1111122,1111122' 
COMPS,ioos:station:USF.COMPS:C10:1,2016-06-04T21:05:00Z,27.1690,-82.9260,3.0,2.26,240.04,3.2,'1111122,1111122,1111122' 
COMPS,ioos:station:USF.COMPS:C10:1,2016-06-04T21:35:00Z,27.1690,-82.9260,3.0,2.32,254.29,2.98,'1111122,1111122,1111122' 
COMPS,ioos:station:USF.COMPS:C10:1,2016-06-04T22:05:00Z,27.1690,-82.9260,3.0,2.02,249.27,2.51,'1111122,1111122,1111122' 
COMPS,ioos:station:USF.COMPS:C10:1,2016-06-04T22:35:00Z,27.1690,-82.9260,3.0,1.41,258.55,2.12,'1111122,1111122,1111122' 
COMPS,ioos:station:USF.COMPS:C10:1,2016-06-04T23:05:00Z,27.1690,-82.9260,3.0,1.12,338.97,1.57,'1111122,1111122,1111122' 
COMPS,ioos:station:USF.COMPS:C10:1,2016-06-04T23:35:00Z,27.1690,-82.9260,3.0,1.38,250.79,1.91,'1111122,1111122,1111122' 
COMPS,ioos:station:USF.COMPS:C10:1,2016-06-05T00:05:00Z,27.1690,-82.9260,3.0,2.68,204.39,3.28,'1111122,1111122,1111122' 
COMPS,ioos:station:USF.COMPS:C10:1,2016-06-05T00:35:00Z,27.1690,-82.9260,3.0,4.37,160.87,5.2,'1111122,1111122,1111122' 
COMPS,ioos:station:USF.COMPS:C10:1,2016-06-05T01:05:00Z,27.1690,-82.9260,3.0,5.58,156.79,6.72,'1111122,1111122,1111122' 
COMPS,ioos:station:USF.COMPS:C10:1,2016-06-05T01:35:00Z,27.1690,-82.9260,3.0,10.16,124.2,13.57,'1111122,1111122,1111122' 
COMPS,ioos:station:USF.COMPS:C10:1,2016-06-05T02:05:00Z,27.1690,-82.9260,3.0,7.24,150.95,10.01,'1111122,1111122,1111122' 
COMPS,ioos:station:USF.COMPS:C10:1,2016-06-05T02:35:00Z,27.1690,-82.9260,3.0,7.03,135.23,9.09,'1111122,1111122,1111122' 
COMPS,ioos:station:USF.COMPS:C10:1,2016-06-05T03:05:00Z,27.1690,-82.9260,3.0,5.85,142.23,7.48,'1111122,1111122,1111122' 
COMPS,ioos:station:USF.COMPS:C10:1,2016-06-05T03:35:00Z,27.1690,-82.9260,3.0,6.07,133.54,7.18,'1111122,1111122,1111122' 
COMPS,ioos:station:USF.COMPS:C10:1,2016-06-05T04:05:00Z,27.1690,-82.9260,3.0,6.15,132.78,7.76,'1111122,1111122,1111122' 
COMPS,ioos:station:USF.COMPS:C10:1,2016-06-05T04:35:00Z,27.1690,-82.9260,3.0,5.38,143.49,6.34,'1111122,1111122,1111122' 
COMPS,ioos:station:USF.COMPS:C10:1,2016-06-05T05:05:00Z,27.1690,-82.9260,3.0,5.01,149.63,6.08,'1111122,1111122,1111122' 
COMPS,ioos:station:USF.COMPS:C10:1,2016-06-05T05:35:00Z,27.1690,-82.9260,3.0,4.97,131.97,5.82,'1111122,1111122,1111122' 
COMPS,ioos:station:USF.COMPS:C10:1,2016-06-05T06:05:00Z,27.1690,-82.9260,3.0,4.97,136.31,6.03,'1111122,1111122,1111122' 
COMPS,ioos:station:USF.COMPS:C10:1,2016-06-05T06:35:00Z,27.1690,-82.9260,3.0,5.23,130.06,6.28,'1111122,1111122,1111122' 
COMPS,ioos:station:USF.COMPS:C10:1,2016-06-05T07:05:00Z,27.1690,-82.9260,3.0,6.64,119.42,8.39,'1111122,1111122,1111122' 
COMPS,ioos:station:USF.COMPS:C10:1,2016-06-05T07:35:00Z,27.1690,-82.9260,3.0,6.98,128.8,8.5,'1111122,1111122,1111122' 
COMPS,ioos:station:USF.COMPS:C10:1,2016-06-05T08:05:00Z,27.1690,-82.9260,3.0,6.81,132.49,8.46,'1111122,1111122,1111122' 
COMPS,ioos:station:USF.COMPS:C10:1,2016-06-05T08:35:00Z,27.1690,-82.9260,3.0,6.4,131.96,7.62,'1111122,1111122,1111122' 
COMPS,ioos:station:USF.COMPS:C10:1,2016-06-05T09:05:00Z,27.1690,-82.9260,3.0,6.17,131.39,7.12,'1111122,1111122,1111122' 
COMPS,ioos:station:USF.COMPS:C10:1,2016-06-05T09:35:00Z,27.1690,-82.9260,3.0,5.89,138.31,7.12,'1111122,1111122,1111122' 
COMPS,ioos:station:USF.COMPS:C10:1,2016-06-05T10:05:00Z,27.1690,-82.9260,3.0,6.42,129.79,7.64,'1111122,1111122,1111122' 
COMPS,ioos:station:USF.COMPS:C10:1,2016-06-05T10:35:00Z,27.1690,-82.9260,3.0,6.46,133.28,7.74,'1111122,1111122,1111122' 
COMPS,ioos:station:USF.COMPS:C10:1,2016-06-05T11:05:00Z,27.1690,-82.9260,3.0,6.77,128.25,8.06,'1111122,1111122,1111122' 
COMPS,ioos:station:USF.COMPS:C10:1,2016-06-05T11:35:00Z,27.1690,-82.9260,3.0,6.49,121.92,7.78,'1111122,1111122,1111122' 
COMPS,ioos:station:USF.COMPS:C10:1,2016-06-05T12:05:00Z,27.1690,-82.9260,3.0,6.76,114.44,7.82,'1111122,1111122,1111122' 
COMPS,ioos:station:USF.COMPS:C10:1,2016-06-05T12:35:00Z,27.1690,-82.9260,3.0,6.6,115.92,7.8,'1111122,1111122,1111122' 
COMPS,ioos:station:USF.COMPS:C10:1,2016-06-05T13:05:00Z,27.1690,-82.9260,3.0,6.39,122.17,7.73,'1111122,1111122,1111122' 
COMPS,ioos:station:USF.COMPS:C10:1,2016-06-05T13:35:00Z,27.1690,-82.9260,3.0,6.38,119.39,7.71,'1111122,1111122,1111122' 
COMPS,ioos:station:USF.COMPS:C10:1,2016-06-05T14:05:00Z,27.1690,-82.9260,3.0,6.21,123.28,7.53,'1111122,1111122,1111122' 
COMPS,ioos:station:USF.COMPS:C10:1,2016-06-05T14:35:00Z,27.1690,-82.9260,3.0,5.56,125.56,6.62,'1111122,1111122,1111122' 
COMPS,ioos:station:USF.COMPS:C10:1,2016-06-05T15:05:00Z,27.1690,-82.9260,3.0,6.42,132.98,7.44,'1111122,1111122,1111122' 
COMPS,ioos:station:USF.COMPS:C10:1,2016-06-05T15:35:00Z,27.1690,-82.9260,3.0,8.47,180.51,11.0,'1111122,1111122,1111122' 
COMPS,ioos:station:USF.COMPS:C10:1,2016-06-05T16:05:00Z,27.1690,-82.9260,3.0,6.06,116.02,7.83,'1111122,1111122,1111122' 
COMPS,ioos:station:USF.COMPS:C10:1,2016-06-05T16:35:00Z,27.1690,-82.9260,3.0,5.77,132.7,7.54,'1111122,1111122,1111122' 
COMPS,ioos:station:USF.COMPS:C10:1,2016-06-05T17:05:00Z,27.1690,-82.9260,3.0,5.1,156.39,8.48,'1111122,1111122,1111122' 
COMPS,ioos:station:USF.COMPS:C10:1,2016-06-05T17:35:00Z,27.1690,-82.9260,3.0,6.0,140.75,7.86,'1111122,1111122,1111122' 